Location: Bovenkerk
(52.2915°N, 4.8336°E)
Time: 06:44:31
(UTC+00:00)

Cosmos 2333 Rocket - Pass Details

Date: 09 April 2020
Orbit: 841 x 861 km, 70.8° (Epoch: 02 June)

Event Time Altitude Azimuth Distance (km) Brightness Sun altitude
Rises 23:34:06 0° 329° (NNW) 3,408 6.2 -29.6°
Reaches altitude 10° 23:36:37 10° 334° (NNW) 2,471 5.4 -29.7°
Maximum altitude 23:42:11 55° 52° (NE) 1,008 2.6 -29.7°
Enters shadow 23:42:32 54° 67° (ENE) 1,018 2.6 -29.7°
